2023/10/28 00:00:00, 2.1, 9.5
2023/10/28 00:10:00, 2.1, 9.5
2023/10/28 00:20:00, 2.0, 9.6
2023/10/28 00:30:00, 2.1, 9.8
2023/10/28 00:40:00, 2.0, 9.6
2023/10/28 00:50:00, 2.0, 9.8
2023/10/28 01:00:00, 2.0, 9.9
2023/10/28 01:10:00, 2.3, 9.9
2023/10/28 01:20:00, 2.2, 9.9
2023/10/28 01:30:00, 2.0,10.0
2023/10/28 01:40:00, 2.1, 9.9
2023/10/28 01:50:00, 2.0,10.1
2023/10/28 02:00:00, 2.1,10.0
2023/10/28 02:10:00, 2.2,10.1
2023/10/28 02:20:00, 2.1,10.1
2023/10/28 02:30:00, 2.1,10.3
2023/10/28 02:40:00, 2.0, 9.9
2023/10/28 02:50:00, 2.2,10.2
2023/10/28 03:00:00, 2.1, 9.9
2023/10/28 03:10:00, 2.1,10.2
2023/10/28 03:20:00, 2.1,10.3
2023/10/28 03:30:00, 1.9,10.5
2023/10/28 03:40:00, 2.0,10.4
2023/10/28 03:50:00, 2.0,10.1
2023/10/28 04:00:00, 2.0,10.5
2023/10/28 04:10:00, 2.0,10.4
2023/10/28 04:20:00, 2.1,10.3
2023/10/28 04:30:00, 2.1,10.3
2023/10/28 04:40:00, 1.9,10.4
2023/10/28 04:50:00, 2.0,10.2
2023/10/28 05:00:00, 2.1,10.2
2023/10/28 05:10:00, 2.0,10.3
2023/10/28 05:20:00, 2.0,10.2
2023/10/28 05:30:00, 1.9,10.3
2023/10/28 05:40:00, 1.8,10.9
2023/10/28 05:50:00, 1.9,10.8
2023/10/28 06:00:00, 1.8,10.8
2023/10/28 06:10:00, 1.8,10.8
2023/10/28 06:20:00, 1.7,11.2
2023/10/28 06:30:00, 1.8,10.8
2023/10/28 06:40:00, 1.7,11.1
2023/10/28 06:50:00, 1.6,11.0
2023/10/28 07:00:00, 1.5,11.0
2023/10/28 07:10:00, 1.6,10.9
2023/10/28 07:20:00, 1.7,11.2
2023/10/28 07:30:00, 1.6,11.2
2023/10/28 07:40:00, 1.4,11.3
2023/10/28 07:50:00, 1.4,11.6
2023/10/28 08:00:00, 1.4,14.2
2023/10/28 08:10:00, 1.3,14.8
2023/10/28 08:20:00, 1.2,18.0
2023/10/28 08:30:00, 0.9,18.9
2023/10/28 08:40:00, 0.8,18.5
2023/10/28 08:50:00, 0.9,18.5
2023/10/28 09:00:00, 0.7,20.3
2023/10/28 09:10:00, 0.8,19.6
2023/10/28 09:20:00, 0.7,19.9
2023/10/28 09:30:00, 0.6,18.7
2023/10/28 09:40:00, 0.7,18.6
2023/10/28 09:50:00, 0.5,18.4
2023/10/28 10:00:00, 0.6,16.7
2023/10/28 10:10:00, 0.6,16.3
2023/10/28 10:20:00, 0.6,16.0
2023/10/28 10:30:00, 0.5,16.3
2023/10/28 10:40:00, 0.6,16.2
2023/10/28 10:50:00, 0.7,16.2
2023/10/28 11:00:00, 0.4,16.5
2023/10/28 11:10:00, 0.4,15.9
2023/10/28 11:20:00, 0.4,17.0
2023/10/28 11:30:00, 0.6,15.2
2023/10/28 11:40:00, 0.4,16.8
2023/10/28 11:50:00, 0.5,16.2
2023/10/28 12:00:00, 0.7,15.6
2023/10/28 12:10:00, 0.8,15.2
2023/10/28 12:20:00, 0.7,15.8
2023/10/28 12:30:00, 0.8,15.3
2023/10/28 12:40:00, 0.9,14.4
2023/10/28 12:50:00, 0.8,15.1
2023/10/28 13:00:00, 0.8,14.5
2023/10/28 13:10:00, 0.7,15.3
2023/10/28 13:20:00, 0.8,14.9
2023/10/28 13:30:00, 0.7,14.5
2023/10/28 13:40:00, 0.8,14.4
2023/10/28 13:50:00, 0.7,14.5
2023/10/28 14:00:00, 0.7,14.6
2023/10/28 14:10:00, 0.6,14.9
2023/10/28 14:20:00, 0.8,14.8
2023/10/28 14:30:00, 0.8,14.2
2023/10/28 14:40:00, 0.7,14.6
2023/10/28 14:50:00, 0.8,14.0
2023/10/28 15:00:00, 0.8,13.8
2023/10/28 15:10:00, 0.9,13.6
2023/10/28 15:20:00, 0.8,13.9
2023/10/28 15:30:00, 0.8,13.2
2023/10/28 15:40:00, 0.8,12.6
2023/10/28 15:50:00, 0.8,13.2
2023/10/28 16:00:00, 0.8,13.1
2023/10/28 16:10:00, 0.8,13.2
2023/10/28 16:20:00, 0.8,12.9
2023/10/28 16:30:00, 0.8,12.4
2023/10/28 16:40:00, 0.9,12.0
2023/10/28 16:50:00, 1.0,11.7
2023/10/28 17:00:00, 1.0,11.1
2023/10/28 17:10:00, 1.1,10.7
2023/10/28 17:20:00, 1.1,10.6
2023/10/28 17:30:00, 1.1,10.8
2023/10/28 17:40:00, 1.1,10.9
2023/10/28 17:50:00, 1.1,10.4
2023/10/28 18:00:00, 1.2, 9.9
2023/10/28 18:10:00, 1.2, 9.7
2023/10/28 18:20:00, 1.2, 9.4
2023/10/28 18:30:00, 1.2, 9.2
2023/10/28 18:40:00, 1.2, 9.3
2023/10/28 18:50:00, 1.2, 9.5
2023/10/28 19:00:00, 1.1, 9.6
2023/10/28 19:10:00, 1.3, 9.7
2023/10/28 19:20:00, 1.8,10.2
2023/10/28 19:30:00, 1.8, 9.5
2023/10/28 19:40:00, 1.7, 9.6
2023/10/28 19:50:00, 1.6,10.1
2023/10/28 20:00:00, 1.5,10.4
2023/10/28 20:10:00, 1.3,10.6
2023/10/28 20:20:00, 1.1,10.6
2023/10/28 20:30:00, 1.2,10.7
2023/10/28 20:40:00, 1.1,10.6
2023/10/28 20:50:00, 1.2,10.8
2023/10/28 21:00:00, 1.1,10.8
2023/10/28 21:10:00, 1.2,10.8
2023/10/28 21:20:00, 1.0,10.8
2023/10/28 21:30:00, 1.0,10.9
2023/10/28 21:40:00, 1.0,10.8
2023/10/28 21:50:00, 1.1,10.4
2023/10/28 22:00:00, 1.0,10.0
2023/10/28 22:10:00, 1.1, 9.3
2023/10/28 22:20:00, 1.2, 8.6
2023/10/28 22:30:00, 1.2, 8.6
2023/10/28 22:40:00, 1.2, 8.9
2023/10/28 22:50:00, 1.2, 8.8
2023/10/28 23:00:00, 1.2, 9.0
2023/10/28 23:10:00, 1.5, 9.1
2023/10/28 23:20:00, 2.0, 9.0
2023/10/28 23:30:00, 2.2, 9.1
2023/10/28 23:40:00, 2.2, 8.8
2023/10/28 23:50:00, 2.1, 8.7
